Location: Newark
(48.1500°N, 2.9667°W)
Time: 15:16:07
(UTC+00:00)

A-11 Canister half - Pass Details

Date: 22 January 2020
Orbit: 1525 x 1684 km, 47.3° (Epoch: 17 February)

Event Time Altitude Azimuth Distance (km) Brightness Sun altitude
Rises 23:51:04 0° 286° (WNW) 4,763 11.8 -61.0°
Enters shadow 23:52:17 - 285° (WNW) 4,377 11.5 -61.0°
Reaches altitude 10° 23:54:08 10° 284° (WNW) 3,798 - -61.1°
Maximum altitude 00:03:37 63° 206° (SSW) 1,787 - -61.4°
Drops below altitude 10° 00:13:25 10° 129° (SE) 3,909 - -61.6°
Sets 00:16:38 0° 126° (SE) 4,908 - -61.7°
